owner,sensor,date,latitude,longitude,vertical_datum,mass_concentration_of_oxygen_in_sea_water,qcFlag 
DISL,ioos:station:DISL:CATA:1,2015-02-01T00:00:00Z,30.3085,-88.1395,2.368,10.09,1111122 
DISL,ioos:station:DISL:CATA:1,2015-02-01T00:30:00Z,30.3085,-88.1395,2.4,9.83,1111122 
DISL,ioos:station:DISL:CATA:1,2015-02-01T01:00:00Z,30.3085,-88.1395,2.421,10.06,1111122 
DISL,ioos:station:DISL:CATA:1,2015-02-01T01:30:00Z,30.3085,-88.1395,2.425,9.73,1111122 
DISL,ioos:station:DISL:CATA:1,2015-02-01T02:00:00Z,30.3085,-88.1395,2.431,10.0,1111122 
DISL,ioos:station:DISL:CATA:1,2015-02-01T02:30:00Z,30.3085,-88.1395,2.447,9.94,1111122 
DISL,ioos:station:DISL:CATA:1,2015-02-01T03:00:00Z,30.3085,-88.1395,2.436,9.89,1111122 
DISL,ioos:station:DISL:CATA:1,2015-02-01T03:30:00Z,30.3085,-88.1395,2.431,9.71,1111122 
DISL,ioos:station:DISL:CATA:1,2015-02-01T04:00:00Z,30.3085,-88.1395,2.418,9.69,1111122 
DISL,ioos:station:DISL:CATA:1,2015-02-01T04:30:00Z,30.3085,-88.1395,2.399,9.81,1111122 
DISL,ioos:station:DISL:CATA:1,2015-02-01T05:00:00Z,30.3085,-88.1395,2.381,9.7,1111122 
DISL,ioos:station:DISL:CATA:1,2015-02-01T05:30:00Z,30.3085,-88.1395,2.366,10.95,1111122 
DISL,ioos:station:DISL:CATA:1,2015-02-01T06:00:00Z,30.3085,-88.1395,2.338,10.92,1111122 
DISL,ioos:station:DISL:CATA:1,2015-02-01T06:30:00Z,30.3085,-88.1395,2.298,10.86,1111122 
DISL,ioos:station:DISL:CATA:1,2015-02-01T07:00:00Z,30.3085,-88.1395,2.245,10.83,1111122 
DISL,ioos:station:DISL:CATA:1,2015-02-01T07:30:00Z,30.3085,-88.1395,2.213,10.86,1111122 
DISL,ioos:station:DISL:CATA:1,2015-02-01T08:00:00Z,30.3085,-88.1395,2.156,11.04,1111122 
DISL,ioos:station:DISL:CATA:1,2015-02-01T08:30:00Z,30.3085,-88.1395,2.118,10.98,1111122 
DISL,ioos:station:DISL:CATA:1,2015-02-01T09:00:00Z,30.3085,-88.1395,2.076,11.09,1111122 
DISL,ioos:station:DISL:CATA:1,2015-02-01T09:30:00Z,30.3085,-88.1395,2.031,11.05,1111122 
DISL,ioos:station:DISL:CATA:1,2015-02-01T10:00:00Z,30.3085,-88.1395,2.0,10.79,1111122 
DISL,ioos:station:DISL:CATA:1,2015-02-01T10:30:00Z,30.3085,-88.1395,1.98,10.48,1111122 
DISL,ioos:station:DISL:CATA:1,2015-02-01T11:00:00Z,30.3085,-88.1395,1.974,10.57,1111122 
DISL,ioos:station:DISL:CATA:1,2015-02-01T11:30:00Z,30.3085,-88.1395,1.981,10.5,1111122 
DISL,ioos:station:DISL:CATA:1,2015-02-01T12:00:00Z,30.3085,-88.1395,2.002,10.49,1111122 
DISL,ioos:station:DISL:CATA:1,2015-02-01T12:30:00Z,30.3085,-88.1395,2.02,10.45,1111122 
DISL,ioos:station:DISL:CATA:1,2015-02-01T13:00:00Z,30.3085,-88.1395,2.031,10.39,1111122 
DISL,ioos:station:DISL:CATA:1,2015-02-01T13:30:00Z,30.3085,-88.1395,2.053,10.33,1111122 
DISL,ioos:station:DISL:CATA:1,2015-02-01T14:00:00Z,30.3085,-88.1395,2.058,10.28,1111122 
DISL,ioos:station:DISL:CATA:1,2015-02-01T14:30:00Z,30.3085,-88.1395,2.052,9.96,1111122 
DISL,ioos:station:DISL:CATA:1,2015-02-01T15:00:00Z,30.3085,-88.1395,2.072,10.27,1111122 
DISL,ioos:station:DISL:CATA:1,2015-02-01T15:30:00Z,30.3085,-88.1395,2.086,10.08,1111122 
DISL,ioos:station:DISL:CATA:1,2015-02-01T16:00:00Z,30.3085,-88.1395,2.101,10.46,1111122 
DISL,ioos:station:DISL:CATA:1,2015-02-01T16:30:00Z,30.3085,-88.1395,2.129,10.4,1111122 
DISL,ioos:station:DISL:CATA:1,2015-02-01T17:00:00Z,30.3085,-88.1395,2.144,10.36,1111122 
DISL,ioos:station:DISL:CATA:1,2015-02-01T17:30:00Z,30.3085,-88.1395,2.172,10.42,1111122 
DISL,ioos:station:DISL:CATA:1,2015-02-01T18:00:00Z,30.3085,-88.1395,2.204,10.26,1111122 
DISL,ioos:station:DISL:CATA:1,2015-02-01T18:30:00Z,30.3085,-88.1395,2.217,10.56,1111122 
DISL,ioos:station:DISL:CATA:1,2015-02-01T19:00:00Z,30.3085,-88.1395,2.251,10.52,1111122 
DISL,ioos:station:DISL:CATA:1,2015-02-01T19:30:00Z,30.3085,-88.1395,2.307,10.37,1111122 
DISL,ioos:station:DISL:CATA:1,2015-02-01T20:00:00Z,30.3085,-88.1395,2.327,10.49,1111122 
DISL,ioos:station:DISL:CATA:1,2015-02-01T20:30:00Z,30.3085,-88.1395,2.335,10.69,1111122 
DISL,ioos:station:DISL:CATA:1,2015-02-01T21:00:00Z,30.3085,-88.1395,2.365,10.67,1111122 
DISL,ioos:station:DISL:CATA:1,2015-02-01T21:30:00Z,30.3085,-88.1395,2.373,10.96,1111122 
DISL,ioos:station:DISL:CATA:1,2015-02-01T22:00:00Z,30.3085,-88.1395,2.398,10.94,1111122 
DISL,ioos:station:DISL:CATA:1,2015-02-01T22:30:00Z,30.3085,-88.1395,2.424,10.91,1111122 
DISL,ioos:station:DISL:CATA:1,2015-02-01T23:00:00Z,30.3085,-88.1395,2.447,11.44,1111122 
DISL,ioos:station:DISL:CATA:1,2015-02-01T23:30:00Z,30.3085,-88.1395,2.476,11.51,1111122 
DISL,ioos:station:DISL:CATA:1,2015-02-02T00:00:00Z,30.3085,-88.1395,2.514,11.7,1111122 
DISL,ioos:station:DISL:CATA:1,2015-02-02T00:30:00Z,30.3085,-88.1395,2.528,10.4,1111122 
DISL,ioos:station:DISL:CATA:1,2015-02-02T01:00:00Z,30.3085,-88.1395,2.544,9.14,1111122 
DISL,ioos:station:DISL:CATA:1,2015-02-02T01:30:00Z,30.3085,-88.1395,2.557,9.33,1111122 
DISL,ioos:station:DISL:CATA:1,2015-02-02T02:00:00Z,30.3085,-88.1395,2.569,9.97,1111122 
DISL,ioos:station:DISL:CATA:1,2015-02-02T02:30:00Z,30.3085,-88.1395,2.584,9.79,1111122 
DISL,ioos:station:DISL:CATA:1,2015-02-02T03:00:00Z,30.3085,-88.1395,2.586,8.66,1111122 
DISL,ioos:station:DISL:CATA:1,2015-02-02T03:30:00Z,30.3085,-88.1395,2.583,9.0,1111122 
DISL,ioos:station:DISL:CATA:1,2015-02-02T04:00:00Z,30.3085,-88.1395,2.583,9.01,1111122 
DISL,ioos:station:DISL:CATA:1,2015-02-02T04:30:00Z,30.3085,-88.1395,2.578,8.83,1111122 
DISL,ioos:station:DISL:CATA:1,2015-02-02T05:00:00Z,30.3085,-88.1395,2.545,9.36,1111122 
DISL,ioos:station:DISL:CATA:1,2015-02-02T05:30:00Z,30.3085,-88.1395,2.534,10.11,1111122 
DISL,ioos:station:DISL:CATA:1,2015-02-02T06:00:00Z,30.3085,-88.1395,2.554,10.01,1111122 
DISL,ioos:station:DISL:CATA:1,2015-02-02T06:30:00Z,30.3085,-88.1395,2.504,10.02,1111122 
DISL,ioos:station:DISL:CATA:1,2015-02-02T07:00:00Z,30.3085,-88.1395,2.522,9.03,1111122 
DISL,ioos:station:DISL:CATA:1,2015-02-02T07:30:00Z,30.3085,-88.1395,2.457,8.58,1111122 
DISL,ioos:station:DISL:CATA:1,2015-02-02T08:00:00Z,30.3085,-88.1395,2.39,8.53,1111122 
DISL,ioos:station:DISL:CATA:1,2015-02-02T08:30:00Z,30.3085,-88.1395,2.342,8.76,1111122 
DISL,ioos:station:DISL:CATA:1,2015-02-02T09:00:00Z,30.3085,-88.1395,2.303,8.6,1111122 
DISL,ioos:station:DISL:CATA:1,2015-02-02T09:30:00Z,30.3085,-88.1395,2.349,1.09,1111122 
DISL,ioos:station:DISL:CATA:1,2015-02-02T10:00:00Z,30.3085,-88.1395,2.253,1.78,1111122 
DISL,ioos:station:DISL:CATA:1,2015-02-02T10:30:00Z,30.3085,-88.1395,2.186,0.92,1111122 
DISL,ioos:station:DISL:CATA:1,2015-02-02T11:00:00Z,30.3085,-88.1395,2.132,0.99,1111122 
DISL,ioos:station:DISL:CATA:1,2015-02-02T11:30:00Z,30.3085,-88.1395,2.08,1.08,1111122 
DISL,ioos:station:DISL:CATA:1,2015-02-02T12:00:00Z,30.3085,-88.1395,2.102,0.87,1111122 
DISL,ioos:station:DISL:CATA:1,2015-02-02T12:30:00Z,30.3085,-88.1395,2.136,0.93,1111122 
DISL,ioos:station:DISL:CATA:1,2015-02-02T13:00:00Z,30.3085,-88.1395,2.051,1.59,1111122 
DISL,ioos:station:DISL:CATA:1,2015-02-02T13:30:00Z,30.3085,-88.1395,2.05,2.16,1111122 
DISL,ioos:station:DISL:CATA:1,2015-02-02T14:00:00Z,30.3085,-88.1395,1.938,8.77,1111122 
DISL,ioos:station:DISL:CATA:1,2015-02-02T14:30:00Z,30.3085,-88.1395,1.934,8.83,1111122 
DISL,ioos:station:DISL:CATA:1,2015-02-02T15:00:00Z,30.3085,-88.1395,1.928,8.66,1111122 
DISL,ioos:station:DISL:CATA:1,2015-02-02T15:30:00Z,30.3085,-88.1395,1.904,9.15,1111122 
DISL,ioos:station:DISL:CATA:1,2015-02-02T16:00:00Z,30.3085,-88.1395,1.889,9.59,1111122 
DISL,ioos:station:DISL:CATA:1,2015-02-02T16:30:00Z,30.3085,-88.1395,1.836,9.61,1111122 
DISL,ioos:station:DISL:CATA:1,2015-02-02T17:00:00Z,30.3085,-88.1395,1.847,9.25,1111122 
DISL,ioos:station:DISL:CATA:1,2015-02-02T17:30:00Z,30.3085,-88.1395,1.887,9.35,1111122 
DISL,ioos:station:DISL:CATA:1,2015-02-02T18:00:00Z,30.3085,-88.1395,1.942,9.48,1111122 
DISL,ioos:station:DISL:CATA:1,2015-02-02T18:30:00Z,30.3085,-88.1395,1.985,9.46,1111122 
DISL,ioos:station:DISL:CATA:1,2015-02-02T19:00:00Z,30.3085,-88.1395,2.033,10.31,1111122 
DISL,ioos:station:DISL:CATA:1,2015-02-02T19:30:00Z,30.3085,-88.1395,2.08,10.55,1111122 
DISL,ioos:station:DISL:CATA:1,2015-02-02T20:00:00Z,30.3085,-88.1395,2.079,10.57,1111122 
DISL,ioos:station:DISL:CATA:1,2015-02-02T20:30:00Z,30.3085,-88.1395,2.075,10.8,1111122 
DISL,ioos:station:DISL:CATA:1,2015-02-02T21:00:00Z,30.3085,-88.1395,2.099,10.77,1111122 
DISL,ioos:station:DISL:CATA:1,2015-02-02T21:30:00Z,30.3085,-88.1395,2.108,10.53,1111122 
DISL,ioos:station:DISL:CATA:1,2015-02-02T22:00:00Z,30.3085,-88.1395,2.144,10.71,1111122 
DISL,ioos:station:DISL:CATA:1,2015-02-02T22:30:00Z,30.3085,-88.1395,2.18,10.63,1111122 
DISL,ioos:station:DISL:CATA:1,2015-02-02T23:00:00Z,30.3085,-88.1395,2.203,10.39,1111122 
DISL,ioos:station:DISL:CATA:1,2015-02-02T23:30:00Z,30.3085,-88.1395,2.23,10.28,1111122 
DISL,ioos:station:DISL:CATA:1,2015-02-03T00:00:00Z,30.3085,-88.1395,2.254,10.26,1111122 
DISL,ioos:station:DISL:CATA:1,2015-02-03T00:30:00Z,30.3085,-88.1395,2.277,10.45,1111122 
DISL,ioos:station:DISL:CATA:1,2015-02-03T01:00:00Z,30.3085,-88.1395,2.293,10.01,1111122 
DISL,ioos:station:DISL:CATA:1,2015-02-03T01:30:00Z,30.3085,-88.1395,2.307,9.86,1111122 
DISL,ioos:station:DISL:CATA:1,2015-02-03T02:00:00Z,30.3085,-88.1395,2.331,9.65,1111122 
DISL,ioos:station:DISL:CATA:1,2015-02-03T02:30:00Z,30.3085,-88.1395,2.342,9.63,1111122 
DISL,ioos:station:DISL:CATA:1,2015-02-03T03:00:00Z,30.3085,-88.1395,2.35,9.52,1111122 
DISL,ioos:station:DISL:CATA:1,2015-02-03T03:30:00Z,30.3085,-88.1395,2.345,9.47,1111122 
DISL,ioos:station:DISL:CATA:1,2015-02-03T04:00:00Z,30.3085,-88.1395,2.346,9.42,1111122 
DISL,ioos:station:DISL:CATA:1,2015-02-03T04:30:00Z,30.3085,-88.1395,2.315,9.31,1111122 
DISL,ioos:station:DISL:CATA:1,2015-02-03T05:00:00Z,30.3085,-88.1395,2.29,9.28,1111122 
DISL,ioos:station:DISL:CATA:1,2015-02-03T05:30:00Z,30.3085,-88.1395,2.262,9.45,1111122 
DISL,ioos:station:DISL:CATA:1,2015-02-03T06:00:00Z,30.3085,-88.1395,2.23,10.49,1111122 
DISL,ioos:station:DISL:CATA:1,2015-02-03T06:30:00Z,30.3085,-88.1395,2.205,10.83,1111122 
DISL,ioos:station:DISL:CATA:1,2015-02-03T07:00:00Z,30.3085,-88.1395,2.172,10.61,1111122 
DISL,ioos:station:DISL:CATA:1,2015-02-03T07:30:00Z,30.3085,-88.1395,2.135,10.53,1111122 
DISL,ioos:station:DISL:CATA:1,2015-02-03T08:00:00Z,30.3085,-88.1395,2.1,10.46,1111122 
DISL,ioos:station:DISL:CATA:1,2015-02-03T08:30:00Z,30.3085,-88.1395,2.064,10.26,1111122 
DISL,ioos:station:DISL:CATA:1,2015-02-03T09:00:00Z,30.3085,-88.1395,2.02,9.97,1111122 
DISL,ioos:station:DISL:CATA:1,2015-02-03T09:30:00Z,30.3085,-88.1395,1.985,9.86,1111122 
DISL,ioos:station:DISL:CATA:1,2015-02-03T10:00:00Z,30.3085,-88.1395,1.956,9.79,1111122 
DISL,ioos:station:DISL:CATA:1,2015-02-03T10:30:00Z,30.3085,-88.1395,1.902,9.74,1111122 
DISL,ioos:station:DISL:CATA:1,2015-02-03T11:00:00Z,30.3085,-88.1395,1.871,9.69,1111122 
DISL,ioos:station:DISL:CATA:1,2015-02-03T11:30:00Z,30.3085,-88.1395,1.839,9.67,1111122 
DISL,ioos:station:DISL:CATA:1,2015-02-03T12:00:00Z,30.3085,-88.1395,1.805,9.63,1111122 
DISL,ioos:station:DISL:CATA:1,2015-02-03T12:30:00Z,30.3085,-88.1395,1.792,9.57,1111122 
DISL,ioos:station:DISL:CATA:1,2015-02-03T13:00:00Z,30.3085,-88.1395,1.791,9.53,1111122 
DISL,ioos:station:DISL:CATA:1,2015-02-03T13:30:00Z,30.3085,-88.1395,1.806,9.65,1111122 
DISL,ioos:station:DISL:CATA:1,2015-02-03T14:00:00Z,30.3085,-88.1395,1.817,9.66,1111122 
DISL,ioos:station:DISL:CATA:1,2015-02-03T14:30:00Z,30.3085,-88.1395,1.855,9.62,1111122 
DISL,ioos:station:DISL:CATA:1,2015-02-03T15:00:00Z,30.3085,-88.1395,1.883,9.57,1111122 
DISL,ioos:station:DISL:CATA:1,2015-02-03T15:30:00Z,30.3085,-88.1395,1.894,9.59,1111122 
DISL,ioos:station:DISL:CATA:1,2015-02-03T16:00:00Z,30.3085,-88.1395,1.915,9.5,1111122 
DISL,ioos:station:DISL:CATA:1,2015-02-03T16:30:00Z,30.3085,-88.1395,1.925,10.04,1111122 
DISL,ioos:station:DISL:CATA:1,2015-02-03T17:00:00Z,30.3085,-88.1395,1.931,9.94,1111122 
DISL,ioos:station:DISL:CATA:1,2015-02-03T17:30:00Z,30.3085,-88.1395,1.945,10.19,1111122 
DISL,ioos:station:DISL:CATA:1,2015-02-03T18:00:00Z,30.3085,-88.1395,1.972,10.28,1111122 
DISL,ioos:station:DISL:CATA:1,2015-02-03T18:30:00Z,30.3085,-88.1395,1.973,10.85,1111122 
DISL,ioos:station:DISL:CATA:1,2015-02-03T19:00:00Z,30.3085,-88.1395,2.005,11.16,1111122 
DISL,ioos:station:DISL:CATA:1,2015-02-03T19:30:00Z,30.3085,-88.1395,2.026,10.7,1111122 
DISL,ioos:station:DISL:CATA:1,2015-02-03T20:00:00Z,30.3085,-88.1395,2.027,11.0,1111122 
DISL,ioos:station:DISL:CATA:1,2015-02-03T20:30:00Z,30.3085,-88.1395,2.04,10.88,1111122 
DISL,ioos:station:DISL:CATA:1,2015-02-03T21:00:00Z,30.3085,-88.1395,2.057,11.12,1111122 
DISL,ioos:station:DISL:CATA:1,2015-02-03T21:30:00Z,30.3085,-88.1395,2.084,11.25,1111122 
DISL,ioos:station:DISL:CATA:1,2015-02-03T22:00:00Z,30.3085,-88.1395,2.09,11.13,1111122 
DISL,ioos:station:DISL:CATA:1,2015-02-03T22:30:00Z,30.3085,-88.1395,2.109,10.99,1111122 
DISL,ioos:station:DISL:CATA:1,2015-02-03T23:00:00Z,30.3085,-88.1395,2.111,10.77,1111122 
DISL,ioos:station:DISL:CATA:1,2015-02-03T23:30:00Z,30.3085,-88.1395,2.133,10.2,1111122 
DISL,ioos:station:DISL:CATA:1,2015-02-04T00:00:00Z,30.3085,-88.1395,2.157,9.99,1111122 
DISL,ioos:station:DISL:CATA:1,2015-02-04T00:30:00Z,30.3085,-88.1395,2.189,10.26,1111122 
DISL,ioos:station:DISL:CATA:1,2015-02-04T01:00:00Z,30.3085,-88.1395,2.224,10.17,1111122 
DISL,ioos:station:DISL:CATA:1,2015-02-04T01:30:00Z,30.3085,-88.1395,2.242,10.26,1111122 
DISL,ioos:station:DISL:CATA:1,2015-02-04T02:00:00Z,30.3085,-88.1395,2.253,9.96,1111122 
DISL,ioos:station:DISL:CATA:1,2015-02-04T02:30:00Z,30.3085,-88.1395,2.285,10.47,1111122 
DISL,ioos:station:DISL:CATA:1,2015-02-04T03:00:00Z,30.3085,-88.1395,2.274,11.88,1111122 
DISL,ioos:station:DISL:CATA:1,2015-02-04T03:30:00Z,30.3085,-88.1395,2.3,11.5,1111122 
DISL,ioos:station:DISL:CATA:1,2015-02-04T04:00:00Z,30.3085,-88.1395,2.284,11.24,1111122 
DISL,ioos:station:DISL:CATA:1,2015-02-04T04:30:00Z,30.3085,-88.1395,2.28,10.21,1111122 
DISL,ioos:station:DISL:CATA:1,2015-02-04T05:00:00Z,30.3085,-88.1395,2.264,8.98,1111122 
DISL,ioos:station:DISL:CATA:1,2015-02-04T05:30:00Z,30.3085,-88.1395,2.258,8.72,1111122 
DISL,ioos:station:DISL:CATA:1,2015-02-04T06:00:00Z,30.3085,-88.1395,2.238,9.06,1111122 
DISL,ioos:station:DISL:CATA:1,2015-02-04T06:30:00Z,30.3085,-88.1395,2.227,9.34,1111122 
DISL,ioos:station:DISL:CATA:1,2015-02-04T07:00:00Z,30.3085,-88.1395,2.187,10.37,1111122 
DISL,ioos:station:DISL:CATA:1,2015-02-04T07:30:00Z,30.3085,-88.1395,2.146,11.32,1111122 
DISL,ioos:station:DISL:CATA:1,2015-02-04T08:00:00Z,30.3085,-88.1395,2.109,11.01,1111122 
DISL,ioos:station:DISL:CATA:1,2015-02-04T08:30:00Z,30.3085,-88.1395,2.091,11.71,1111122 
DISL,ioos:station:DISL:CATA:1,2015-02-04T09:00:00Z,30.3085,-88.1395,2.055,11.84,1111122 
DISL,ioos:station:DISL:CATA:1,2015-02-04T09:30:00Z,30.3085,-88.1395,2.023,11.74,1111122 
DISL,ioos:station:DISL:CATA:1,2015-02-04T10:00:00Z,30.3085,-88.1395,1.994,11.56,1111122 
DISL,ioos:station:DISL:CATA:1,2015-02-04T10:30:00Z,30.3085,-88.1395,1.964,11.29,1111122 
DISL,ioos:station:DISL:CATA:1,2015-02-04T11:00:00Z,30.3085,-88.1395,1.936,11.03,1111122 
DISL,ioos:station:DISL:CATA:1,2015-02-04T11:30:00Z,30.3085,-88.1395,1.9,10.93,1111122 
DISL,ioos:station:DISL:CATA:1,2015-02-04T12:00:00Z,30.3085,-88.1395,1.882,10.85,1111122 
DISL,ioos:station:DISL:CATA:1,2015-02-04T12:30:00Z,30.3085,-88.1395,1.86,10.79,1111122 
DISL,ioos:station:DISL:CATA:1,2015-02-04T13:00:00Z,30.3085,-88.1395,1.832,10.64,1111122 
DISL,ioos:station:DISL:CATA:1,2015-02-04T13:30:00Z,30.3085,-88.1395,1.813,10.61,1111122 
DISL,ioos:station:DISL:CATA:1,2015-02-04T14:00:00Z,30.3085,-88.1395,1.816,10.64,1111122 
DISL,ioos:station:DISL:CATA:1,2015-02-04T14:30:00Z,30.3085,-88.1395,1.836,10.65,1111122 
DISL,ioos:station:DISL:CATA:1,2015-02-04T15:00:00Z,30.3085,-88.1395,1.845,10.62,1111122 
DISL,ioos:station:DISL:CATA:1,2015-02-04T15:30:00Z,30.3085,-88.1395,1.867,10.55,1111122 
DISL,ioos:station:DISL:CATA:1,2015-02-04T16:00:00Z,30.3085,-88.1395,1.884,10.58,1111122 
DISL,ioos:station:DISL:CATA:1,2015-02-04T16:30:00Z,30.3085,-88.1395,1.897,10.56,1111122 
DISL,ioos:station:DISL:CATA:1,2015-02-04T17:00:00Z,30.3085,-88.1395,1.915,10.52,1111122 
DISL,ioos:station:DISL:CATA:1,2015-02-04T17:30:00Z,30.3085,-88.1395,1.93,10.47,1111122 
DISL,ioos:station:DISL:CATA:1,2015-02-04T18:00:00Z,30.3085,-88.1395,1.934,10.5,1111122 
DISL,ioos:station:DISL:CATA:1,2015-02-04T18:30:00Z,30.3085,-88.1395,1.946,10.37,1111122 
DISL,ioos:station:DISL:CATA:1,2015-02-04T19:00:00Z,30.3085,-88.1395,1.965,10.34,1111122 
DISL,ioos:station:DISL:CATA:1,2015-02-04T19:30:00Z,30.3085,-88.1395,1.972,10.32,1111122 
DISL,ioos:station:DISL:CATA:1,2015-02-04T20:00:00Z,30.3085,-88.1395,1.976,10.39,1111122 
DISL,ioos:station:DISL:CATA:1,2015-02-04T20:30:00Z,30.3085,-88.1395,1.958,10.44,1111122 
DISL,ioos:station:DISL:CATA:1,2015-02-04T21:00:00Z,30.3085,-88.1395,1.956,10.44,1111122 
DISL,ioos:station:DISL:CATA:1,2015-02-04T21:30:00Z,30.3085,-88.1395,1.97,10.53,1111122 
DISL,ioos:station:DISL:CATA:1,2015-02-04T22:00:00Z,30.3085,-88.1395,1.963,10.5,1111122 
DISL,ioos:station:DISL:CATA:1,2015-02-04T22:30:00Z,30.3085,-88.1395,1.962,10.49,1111122 
DISL,ioos:station:DISL:CATA:1,2015-02-04T23:00:00Z,30.3085,-88.1395,1.981,10.46,1111122 
DISL,ioos:station:DISL:CATA:1,2015-02-04T23:30:00Z,30.3085,-88.1395,1.993,10.46,1111122 
DISL,ioos:station:DISL:CATA:1,2015-02-05T00:00:00Z,30.3085,-88.1395,2.034,10.5,1111122 
DISL,ioos:station:DISL:CATA:1,2015-02-05T00:30:00Z,30.3085,-88.1395,2.078,10.47,1111122 
DISL,ioos:station:DISL:CATA:1,2015-02-05T01:00:00Z,30.3085,-88.1395,2.074,10.43,1111122 
DISL,ioos:station:DISL:CATA:1,2015-02-05T01:30:00Z,30.3085,-88.1395,2.155,10.43,1111122 
DISL,ioos:station:DISL:CATA:1,2015-02-05T02:00:00Z,30.3085,-88.1395,2.205,10.39,1111122 
DISL,ioos:station:DISL:CATA:1,2015-02-05T02:30:00Z,30.3085,-88.1395,2.241,10.35,1111122 
DISL,ioos:station:DISL:CATA:1,2015-02-05T03:00:00Z,30.3085,-88.1395,2.283,10.3,1111122 
DISL,ioos:station:DISL:CATA:1,2015-02-05T03:30:00Z,30.3085,-88.1395,2.291,10.31,1111122 
DISL,ioos:station:DISL:CATA:1,2015-02-05T04:00:00Z,30.3085,-88.1395,2.309,10.26,1111122 
DISL,ioos:station:DISL:CATA:1,2015-02-05T04:30:00Z,30.3085,-88.1395,2.315,10.21,1111122 
DISL,ioos:station:DISL:CATA:1,2015-02-05T05:00:00Z,30.3085,-88.1395,2.345,10.21,1111122 
DISL,ioos:station:DISL:CATA:1,2015-02-05T05:30:00Z,30.3085,-88.1395,2.343,10.07,1111122 
DISL,ioos:station:DISL:CATA:1,2015-02-05T06:00:00Z,30.3085,-88.1395,2.309,9.56,1111122 
DISL,ioos:station:DISL:CATA:1,2015-02-05T06:30:00Z,30.3085,-88.1395,2.289,9.25,1111122 
DISL,ioos:station:DISL:CATA:1,2015-02-05T07:00:00Z,30.3085,-88.1395,2.259,8.82,1111122 
DISL,ioos:station:DISL:CATA:1,2015-02-05T07:30:00Z,30.3085,-88.1395,2.228,9.23,1111122 
DISL,ioos:station:DISL:CATA:1,2015-02-05T08:00:00Z,30.3085,-88.1395,2.182,10.22,1111122 
DISL,ioos:station:DISL:CATA:1,2015-02-05T08:30:00Z,30.3085,-88.1395,2.154,10.34,1111122 
DISL,ioos:station:DISL:CATA:1,2015-02-05T09:00:00Z,30.3085,-88.1395,2.174,10.28,1111122 
DISL,ioos:station:DISL:CATA:1,2015-02-05T09:30:00Z,30.3085,-88.1395,2.161,10.22,1111122 
DISL,ioos:station:DISL:CATA:1,2015-02-05T10:00:00Z,30.3085,-88.1395,2.131,10.23,1111122 
DISL,ioos:station:DISL:CATA:1,2015-02-05T10:30:00Z,30.3085,-88.1395,2.129,10.2,1111122 
DISL,ioos:station:DISL:CATA:1,2015-02-05T11:00:00Z,30.3085,-88.1395,2.094,10.17,1111122 
DISL,ioos:station:DISL:CATA:1,2015-02-05T11:30:00Z,30.3085,-88.1395,2.072,9.95,1111122 
DISL,ioos:station:DISL:CATA:1,2015-02-05T12:00:00Z,30.3085,-88.1395,2.033,9.97,1111122 
DISL,ioos:station:DISL:CATA:1,2015-02-05T12:30:00Z,30.3085,-88.1395,2.0,9.9,1111122 
DISL,ioos:station:DISL:CATA:1,2015-02-05T13:00:00Z,30.3085,-88.1395,1.985,9.81,1111122 
DISL,ioos:station:DISL:CATA:1,2015-02-05T13:30:00Z,30.3085,-88.1395,1.958,9.76,1111122 
DISL,ioos:station:DISL:CATA:1,2015-02-05T14:00:00Z,30.3085,-88.1395,1.953,9.81,1111122 
DISL,ioos:station:DISL:CATA:1,2015-02-05T14:30:00Z,30.3085,-88.1395,1.975,9.87,1111122 
DISL,ioos:station:DISL:CATA:1,2015-02-05T15:00:00Z,30.3085,-88.1395,1.984,9.94,1111122 
DISL,ioos:station:DISL:CATA:1,2015-02-05T15:30:00Z,30.3085,-88.1395,2.015,10.08,1111122 
DISL,ioos:station:DISL:CATA:1,2015-02-05T16:00:00Z,30.3085,-88.1395,2.005,10.23,1111122 
DISL,ioos:station:DISL:CATA:1,2015-02-05T16:30:00Z,30.3085,-88.1395,1.968,10.18,1111122 
DISL,ioos:station:DISL:CATA:1,2015-02-05T17:00:00Z,30.3085,-88.1395,1.971,10.14,1111122 
DISL,ioos:station:DISL:CATA:1,2015-02-05T17:30:00Z,30.3085,-88.1395,2.006,10.12,1111122 
DISL,ioos:station:DISL:CATA:1,2015-02-05T18:00:00Z,30.3085,-88.1395,2.031,10.17,1111122 
DISL,ioos:station:DISL:CATA:1,2015-02-05T18:30:00Z,30.3085,-88.1395,2.042,10.06,1111122 
DISL,ioos:station:DISL:CATA:1,2015-02-05T19:00:00Z,30.3085,-88.1395,2.043,10.41,1111122 
DISL,ioos:station:DISL:CATA:1,2015-02-05T19:30:00Z,30.3085,-88.1395,2.054,10.82,1111122 
DISL,ioos:station:DISL:CATA:1,2015-02-05T20:00:00Z,30.3085,-88.1395,2.056,11.11,1111122 
DISL,ioos:station:DISL:CATA:1,2015-02-05T20:30:00Z,30.3085,-88.1395,2.082,11.19,1111122 
DISL,ioos:station:DISL:CATA:1,2015-02-05T21:00:00Z,30.3085,-88.1395,2.107,12.81,1111122 
DISL,ioos:station:DISL:CATA:1,2015-02-05T21:30:00Z,30.3085,-88.1395,2.099,13.06,1111122 
DISL,ioos:station:DISL:CATA:1,2015-02-05T22:00:00Z,30.3085,-88.1395,2.079,12.75,1111122 
DISL,ioos:station:DISL:CATA:1,2015-02-05T22:30:00Z,30.3085,-88.1395,2.068,11.08,1111122 
DISL,ioos:station:DISL:CATA:1,2015-02-05T23:00:00Z,30.3085,-88.1395,2.055,11.43,1111122 
DISL,ioos:station:DISL:CATA:1,2015-02-05T23:30:00Z,30.3085,-88.1395,2.04,10.9,1111122 
DISL,ioos:station:DISL:CATA:1,2015-02-06T00:00:00Z,30.3085,-88.1395,2.05,10.71,1111122 
DISL,ioos:station:DISL:CATA:1,2015-02-06T00:30:00Z,30.3085,-88.1395,2.066,11.46,1111122 
DISL,ioos:station:DISL:CATA:1,2015-02-06T01:00:00Z,30.3085,-88.1395,2.078,12.03,1111122 
DISL,ioos:station:DISL:CATA:1,2015-02-06T01:30:00Z,30.3085,-88.1395,2.095,11.6,1111122 
DISL,ioos:station:DISL:CATA:1,2015-02-06T02:00:00Z,30.3085,-88.1395,2.113,10.84,1111122 
DISL,ioos:station:DISL:CATA:1,2015-02-06T02:30:00Z,30.3085,-88.1395,2.126,10.71,1111122 
DISL,ioos:station:DISL:CATA:1,2015-02-06T03:00:00Z,30.3085,-88.1395,2.125,9.34,1111122 
DISL,ioos:station:DISL:CATA:1,2015-02-06T03:30:00Z,30.3085,-88.1395,2.098,8.84,1111122 
DISL,ioos:station:DISL:CATA:1,2015-02-06T04:00:00Z,30.3085,-88.1395,2.074,8.12,1111122 
DISL,ioos:station:DISL:CATA:1,2015-02-06T04:30:00Z,30.3085,-88.1395,2.075,8.97,1111122 
DISL,ioos:station:DISL:CATA:1,2015-02-06T05:00:00Z,30.3085,-88.1395,2.062,7.96,1111122 
DISL,ioos:station:DISL:CATA:1,2015-02-06T05:30:00Z,30.3085,-88.1395,2.043,7.95,1111122 
DISL,ioos:station:DISL:CATA:1,2015-02-06T06:00:00Z,30.3085,-88.1395,2.029,8.88,1111122 
DISL,ioos:station:DISL:CATA:1,2015-02-06T06:30:00Z,30.3085,-88.1395,2.023,10.15,1111122 
DISL,ioos:station:DISL:CATA:1,2015-02-06T07:00:00Z,30.3085,-88.1395,2.028,10.34,1111122 
DISL,ioos:station:DISL:CATA:1,2015-02-06T07:30:00Z,30.3085,-88.1395,2.036,10.23,1111122 
DISL,ioos:station:DISL:CATA:1,2015-02-06T08:00:00Z,30.3085,-88.1395,2.036,10.14,1111122 
DISL,ioos:station:DISL:CATA:1,2015-02-06T08:30:00Z,30.3085,-88.1395,2.027,10.04,1111122 
DISL,ioos:station:DISL:CATA:1,2015-02-06T09:00:00Z,30.3085,-88.1395,2.019,9.94,1111122 
DISL,ioos:station:DISL:CATA:1,2015-02-06T09:30:00Z,30.3085,-88.1395,2.0,9.94,1111122 
DISL,ioos:station:DISL:CATA:1,2015-02-06T10:00:00Z,30.3085,-88.1395,1.974,9.92,1111122 
DISL,ioos:station:DISL:CATA:1,2015-02-06T10:30:00Z,30.3085,-88.1395,1.944,9.96,1111122 
DISL,ioos:station:DISL:CATA:1,2015-02-06T11:00:00Z,30.3085,-88.1395,1.913,9.96,1111122 
DISL,ioos:station:DISL:CATA:1,2015-02-06T11:30:00Z,30.3085,-88.1395,1.874,10.01,1111122 
DISL,ioos:station:DISL:CATA:1,2015-02-06T12:00:00Z,30.3085,-88.1395,1.844,10.05,1111122 
DISL,ioos:station:DISL:CATA:1,2015-02-06T12:30:00Z,30.3085,-88.1395,1.835,10.1,1111122 
DISL,ioos:station:DISL:CATA:1,2015-02-06T13:00:00Z,30.3085,-88.1395,1.826,10.14,1111122 
DISL,ioos:station:DISL:CATA:1,2015-02-06T13:30:00Z,30.3085,-88.1395,1.832,10.21,1111122 
DISL,ioos:station:DISL:CATA:1,2015-02-06T14:00:00Z,30.3085,-88.1395,1.825,10.32,1111122 
DISL,ioos:station:DISL:CATA:1,2015-02-06T14:30:00Z,30.3085,-88.1395,1.84,10.38,1111122 